Washington, VA

2:24 AM EDT on July 23, 2017 (GMT -0400)
Ronald Reagan Washington National

Weather History for KDCA - March, 2013

Change the Weather History Date:

Thursday, March 28, 2013

  Actual Average Record
Temperature  
Mean Temperature 45 °F 51 °F  
Max Temperature 50 °F 60 °F 85 °F (1945)
Min Temperature 40 °F 41 °F 21 °F (1894)
Degree Days  
Heating Degree Days 20 14  
Month to date heating degree days 609 525  
Since 1 July heating degree days 3423 3633  
Cooling Degree Days 0 0  
Month to date cooling degree days 0 0  
Year to date cooling degree days 0 0  
Moisture  
Dew Point 26 °F    
Average Humidity 48    
Maximum Humidity 54    
Minimum Humidity 42    
Precipitation  
Precipitation T in 0.12 in 1.63 in (1994)
Month to date precipitation 2.78 3.11  
Year to date precipitation 6.98 8.54  
Snow  
Snow 0.00 in 0.00 in 6.00 in (1891)
Month to date snowfall 1.6 1.3  
Since 1 July snowfall 3.1 15.4  
Snow Depth 0.00 in    
Sea Level Pressure  
Sea Level Pressure 30.15 in    
Wind  
Wind Speed 12 mph (NW)    
Max Wind Speed 24 mph    
Max Gust Speed 31 mph    
Visibility 10 miles    
Events Rain    
T = Trace of Precipitation, MM = Missing Value Source: NWS Daily Summary

Daily Weather History Graph

Daily Weather History Graph

Search for Another Location

Airport or City:

Trip Planner

Search our weather history database for the weather conditions in past years. The results will help you decide how hot, cold, wet, or windy it might be!

Date:

Astronomy

Mar. 28, 2013 Rise Set
Actual Time 6:58 AM EDT 7:28 PM EDT
Civil Twilight 6:32 AM EDT 7:54 PM EDT
Nautical Twilight 6:00 AM EDT 8:26 PM EDT
Astronomical Twilight 5:28 AM EDT 8:58 PM EDT
Moon 9:16 PM EDT (3/28) 7:26 AM EDT (3/28)
Length of Visible Light 13h 22m
Length of Day
12h 29m
Full, 98% of the Moon is Illuminated
Mar 28
Full
Apr 3
Last Quarter
Apr 10
New
Apr 18
First Quarter
Apr 25
Full

Hourly Weather History & Observations

Time (EDT) Temp. Windchill Dew Point Humidity Pressure Visibility Wind Dir Wind Speed Gust Speed Precip Events Conditions
12:52 AM 41.0 °F 35.8 °F 25.0 °F 53% 30.13 in 10.0 mi West 8.1 mph - N/A   Scattered Clouds
1:52 AM 42.1 °F 36.6 °F 25.0 °F 51% 30.13 in 10.0 mi WNW 9.2 mph - N/A   Mostly Cloudy
3:52 AM 39.9 °F 36.7 °F 25.0 °F 55% 30.12 in 10.0 mi Variable 4.6 mph - N/A   Scattered Clouds
4:52 AM 41.0 °F 35.2 °F 25.0 °F 53% 30.11 in 10.0 mi West 9.2 mph - N/A   Scattered Clouds
5:52 AM 39.9 °F 33.4 °F 25.0 °F 55% 30.11 in 10.0 mi WNW 10.4 mph 16.1 mph N/A   Scattered Clouds
6:52 AM 39.9 °F 33.9 °F 24.1 °F 53% 30.12 in 10.0 mi WNW 9.2 mph - N/A   Scattered Clouds
7:52 AM 42.8 °F 39.3 °F 26.6 °F 53% 30.13 in 10.0 mi West 5.8 mph - N/A   Mostly Cloudy
8:52 AM 44.1 °F 39.0 °F 26.1 °F 49% 30.13 in 10.0 mi WNW 9.2 mph 18.4 mph N/A   Mostly Cloudy
9:52 AM 45.0 °F 38.2 °F 27.0 °F 49% 30.13 in 10.0 mi WNW 15.0 mph 25.3 mph N/A   Mostly Cloudy
10:52 AM 46.0 °F 38.5 °F 27.0 °F 47% 30.14 in 10.0 mi NW 19.6 mph 26.5 mph N/A   Overcast
11:52 AM 46.9 °F - 27.0 °F 46% 30.15 in 10.0 mi NW 13.8 mph - N/A   Overcast
12:52 PM 48.9 °F - 27.0 °F 43% 30.14 in 10.0 mi NW 16.1 mph 27.6 mph N/A   Overcast
1:52 PM 48.0 °F - 26.1 °F 42% 30.14 in 10.0 mi NW 16.1 mph 24.2 mph N/A   Overcast
2:38 PM 48.2 °F - 24.8 °F 40% 30.13 in 10.0 mi NW 18.4 mph 29.9 mph 0.00 in Rain Light Rain
2:46 PM 48.2 °F - 24.8 °F 40% 30.14 in 10.0 mi NW 13.8 mph 27.6 mph 0.00 in   Overcast
2:52 PM 48.9 °F - 26.1 °F 41% 30.14 in 10.0 mi NNW 12.7 mph 24.2 mph 0.00 in   Overcast
3:52 PM 48.9 °F - 27.0 °F 43% 30.14 in 10.0 mi NW 18.4 mph 25.3 mph 0.00 in   Overcast
4:52 PM 48.9 °F - 27.0 °F 43% 30.14 in 10.0 mi NW 11.5 mph - N/A   Overcast
5:52 PM 48.0 °F - 28.0 °F 46% 30.17 in 10.0 mi NW 17.3 mph 25.3 mph N/A   Overcast
6:52 PM 46.9 °F - 27.0 °F 46% 30.19 in 10.0 mi NNW 11.5 mph 19.6 mph N/A   Overcast
7:52 PM 46.9 °F - 27.0 °F 46% 30.20 in 10.0 mi NNW 15.0 mph - N/A   Overcast
8:52 PM 46.9 °F - 27.0 °F 46% 30.22 in 10.0 mi NW 15.0 mph 19.6 mph N/A   Overcast
9:52 PM 46.0 °F 39.9 °F 27.0 °F 47% 30.23 in 10.0 mi NW 13.8 mph - N/A   Mostly Cloudy
10:52 PM 45.0 °F 40.1 °F 28.0 °F 52% 30.24 in 10.0 mi NW 9.2 mph - N/A   Mostly Cloudy
11:52 PM 45.0 °F 40.6 °F 28.0 °F 52% 30.25 in 10.0 mi NNW 8.1 mph - N/A   Mostly Cloudy